Regional Weather Roundup
Issued by NWS Albany, NY

Home | Current Version | Previous Version | Text Only | Print | Product List | Glossary On
Versions: 1 2 3 4 5 6 7 8 9 10 11 12 13 14 15 16 17 18 19 20 21 22 23 24 25 26 27 28 29 30 31 32 33 34 35 36 37 38 39 40 41 42 43 44 45 46 47 48 49 50
000
ASUS41 KALY 281210
RWRALY

NEW YORK STATE HOURLY WEATHER ROUNDUP
NATIONAL WEATHER SERVICE ALBANY NY
700 AM EST SAT FEB 28 2015

NOTE: "FAIR" INDICATES FEW OR NO CLOUDS BELOW 12,000 FEET WITH NO
SIGNIFICANT WEATHER AND/OR NO OBSTRUCTIONS TO VISIBILITY.

NYZ032-033-038>043-046>054-057>066-NYZ062>081-281300-
EAST


CITY           SKY/WX    TMP DP  RH WIND       PRES   REMARKS
ALBANY         FAIR       5  -4  66 NW6       30.76R WCI  -6
GLENS FALLS    PTCLDY   -12 -21  64 CALM      30.74R
POUGHKEEPSIE   CLEAR     -5 -12  72 CALM      30.77R
NEWBURGH       CLEAR     -4  -9  77 CALM      30.75R
MONTGOMERY     CLEAR     -6 -13  71 CALM      30.73R
WHITE PLAINS   CLEAR      6  -3  66 W5        30.72R WCI  -3
ISLIP          PTCLDY    14   3  61 N8        30.74R WCI   3
NEW YORK CITY  PTCLDY    15  -2  46 NW7       30.77R WCI   5
CENTRAL PARK   CLEAR     14  -4  44 VRB3      30.78R
$$

NYZ005>009-017-018-044>046-055-056-281300-
CENTRAL


CITY           SKY/WX    TMP DP  RH WIND       PRES   REMARKS
FULTON         CLEAR     -4 -10  75 SE3       30.74R
SYRACUSE       LGT SNOW   4  -3  74 E5        30.74S WCI  -6
ROME           MOCLDY    -3  -6  87 CALM      30.77R
ELMIRA         PTCLDY   -13 -17  82 CALM      30.75R
BINGHAMTON     MOCLDY    -3  -8  79 W7        30.63R WCI -16
MONTICELLO     CLEAR     -2  -8  78 W6        30.64R WCI -14
$$

NYZ026>034-041>043-281300-
NORTH


CITY           SKY/WX    TMP DP  RH WIND       PRES   REMARKS
WATERTOWN      CLEAR      4  -2  76 S5        30.73R WCI  -5
FORT DRUM      NOT AVBL
MASSENA        CLEAR      2  -5  72 SW13      30.71R WCI -15
SARANAC LAKE   MOCLDY    -6 -10  83 SW3       30.55R
PLATTSBURGH    CLEAR     10  -1  61 SW6       30.70R WCI   0
$$

NYZ001>004-010>016-019>021-281300-
WEST


CITY           SKY/WX    TMP DP  RH WIND       PRES   REMARKS
NIAGARA FALLS  CLEAR      1  -4  79 SW13      30.73R WCI -17
BUFFALO        CLEAR      0  -5  79 S8        30.73R WCI -14
DUNKIRK        PTCLDY     1  -7  68 SW8       30.75R WCI -13
JAMESTOWN      PTCLDY    -8 -11  84 CALM      30.62S
WELLSVILLE     PTCLDY    -5 -11  75 CALM      30.60R
ROCHESTER      PTCLDY    -2  -8  76 SW9       30.74R WCI -18
PENN YAN       PTCLDY    -4  -9  79 SW8       30.71R WCI -19
$$

             KEY
       WCI = WIND CHILL INDEX
       VSB = VISIBILITY
       HX  = HEAT INDEX
$$


USA.gov is the U.S. government's official web portal to all federal, state and local government web resources and services.